When you browse on this site, cookies collect data to enhance your experience and personalize the content and advertising you see.
Visit our Privacy Policy to learn more. By continuing to use the site, you agree to this use of cookies and data.
  • In Latvia
  • List of Countries
  • For 7 days
  • Water Temperature
  • Weather Map
  • Weather Widgets
  • user-avatar
    Login

    Hourly Weather Austin

    Today, 12 November, Tuesday

    Time Temperature Precipitation Wind Pressure Humidity
    00:00 -3°C° 0.1 mm 10 mps 755 mmHg 64%
    01:00 -3°C° 0.1 mm 10 mps 755 mmHg 60%
    02:00 -3°C° 0.1 mm 10 mps 755 mmHg 56%
    03:00 -4°C° 0 mm 9 mps 756 mmHg 52%
    04:00 -4°C° 0 mm 9 mps 756 mmHg 48%
    05:00 -5°C° 0 mm 9 mps 757 mmHg 43%
    06:00 -5°C° 0 mm 9 mps 758 mmHg 41%
    07:00 -4°C° 0 mm 8 mps 758 mmHg 38%
    08:00 -4°C° 0 mm 8 mps 759 mmHg 36%
    09:00 -2°C° 0 mm 7 mps 758 mmHg 34%
    10:00 0°C° 0 mm 7 mps 758 mmHg 32%
    11:00 +2°C° 0 mm 6 mps 758 mmHg 30%
    12:00 +3°C° 0 mm 6 mps 756 mmHg 30%
    13:00 +4°C° 0 mm 6 mps 755 mmHg 29%
    14:00 +5°C° 0 mm 5 mps 754 mmHg 29%
    15:00 +4°C° 0 mm 4 mps 754 mmHg 33%
    16:00 +3°C° 0 mm 4 mps 754 mmHg 36%
    17:00 +2°C° 0 mm 3 mps 754 mmHg 39%
    18:00 +2°C° 0 mm 3 mps 754 mmHg 40%
    19:00 +1°C° 0 mm 3 mps 754 mmHg 41%
    20:00 +1°C° 0 mm 3 mps 754 mmHg 42%
    21:00 +2°C° 0 mm 2 mps 754 mmHg 42%
    22:00 +1°C° 0 mm 2 mps 754 mmHg 41%
    23:00 +2°C° 0 mm 1 mps 754 mmHg 41%

    Tomorrow, 13 November, Wednesday

    Time Temperature Precipitation Wind Pressure Humidity
    00:00 +2°C° 0 mm 1 mps 753 mmHg 41%
    01:00 +1°C° 0 mm 1 mps 753 mmHg 42%
    02:00 +1°C° 0 mm 1 mps 752 mmHg 42%
    03:00 +1°C° 0 mm 1 mps 752 mmHg 42%
    04:00 +1°C° 0 mm 1 mps 752 mmHg 43%
    05:00 -1°C° 0 mm 2 mps 751 mmHg 44%
    06:00 +2°C° 0 mm 2 mps 751 mmHg 41%
    07:00 +3°C° 0 mm 2 mps 751 mmHg 38%
    08:00 +4°C° 0 mm 2 mps 751 mmHg 35%
    09:00 +3°C° 0 mm 3 mps 750 mmHg 36%
    10:00 +4°C° 0 mm 3 mps 750 mmHg 36%
    11:00 +5°C° 0 mm 4 mps 750 mmHg 37%
    12:00 +5°C° 0 mm 4 mps 749 mmHg 39%
    13:00 +4°C° 0 mm 3 mps 748 mmHg 42%
    14:00 +4°C° 0 mm 3 mps 747 mmHg 44%
    15:00 +4°C° 0 mm 3 mps 747 mmHg 47%
    16:00 +4°C° 0 mm 4 mps 747 mmHg 49%
    17:00 +4°C° 0 mm 4 mps 746 mmHg 51%
    18:00 +4°C° 0 mm 3 mps 747 mmHg 51%
    19:00 +5°C° 0 mm 2 mps 747 mmHg 50%
    20:00 +6°C° 0 mm 1 mps 747 mmHg 50%
    21:00 +6°C° 0 mm 1 mps 747 mmHg 50%
    22:00 +7°C° 0 mm 1 mps 747 mmHg 50%
    23:00 +6°C° 0 mm 2 mps 747 mmHg 51%

    Day after tomorrow, 14 November, Thursday

    Time Temperature Precipitation Wind Pressure Humidity
    00:00 +7°C° 0.3 mm 1 mps 747 mmHg 60%
    01:00 +6°C° 0.3 mm 1 mps 747 mmHg 68%
    02:00 +5°C° 0.3 mm 0 mps 747 mmHg 77%
    03:00 +6°C° 1.2 mm 1 mps 747 mmHg 81%
    04:00 +6°C° 1.2 mm 1 mps 747 mmHg 86%
    05:00 +6°C° 1.2 mm 1 mps 748 mmHg 90%
    06:00 +6°C° 0.3 mm 1 mps 748 mmHg 90%
    07:00 +7°C° 0.3 mm 1 mps 749 mmHg 90%
    08:00 +7°C° 0.3 mm 1 mps 749 mmHg 90%
    09:00 +7°C° 0.1 mm 2 mps 749 mmHg 87%
    10:00 +7°C° 0.1 mm 3 mps 750 mmHg 85%
    11:00 +8°C° 0.1 mm 3 mps 750 mmHg 83%
    12:00 +7°C° 0 mm 4 mps 750 mmHg 82%
    13:00 +7°C° 0 mm 4 mps 750 mmHg 82%
    14:00 +7°C° 0 mm 4 mps 750 mmHg 81%
    15:00 +7°C° 0 mm 4 mps 750 mmHg 81%
    16:00 +8°C° 0 mm 3 mps 751 mmHg 81%
    17:00 +8°C° 0 mm 2 mps 751 mmHg 81%
    18:00 +7°C° 0 mm 2 mps 751 mmHg 81%
    19:00 +7°C° 0 mm 3 mps 752 mmHg 81%
    20:00 +7°C° 0 mm 3 mps 752 mmHg 80%
    21:00 +7°C° 0 mm 3 mps 753 mmHg 81%
    22:00 +5°C° 0 mm 3 mps 753 mmHg 81%
    23:00 +5°C° 0 mm 3 mps 753 mmHg 81%

    15 November, Friday

    Time Temperature Precipitation Wind Pressure Humidity
    00:00 +5°C° 0 mm 3 mps 753 mmHg 81%
    01:00 +4°C° 0 mm 3 mps 753 mmHg 81%
    02:00 +4°C° 0 mm 3 mps 753 mmHg 82%
    03:00 +4°C° 0 mm 3 mps 753 mmHg 81%
    04:00 +3°C° 0 mm 3 mps 753 mmHg 81%
    05:00 +4°C° 0 mm 2 mps 753 mmHg 80%
    06:00 +5°C° 0 mm 2 mps 754 mmHg 75%
    07:00 +6°C° 0 mm 2 mps 754 mmHg 69%
    08:00 +7°C° 0 mm 2 mps 754 mmHg 64%
    09:00 +9°C° 0 mm 2 mps 754 mmHg 56%
    10:00 +10°C° 0 mm 2 mps 753 mmHg 48%
    11:00 +13°C° 0 mm 2 mps 753 mmHg 41%
    12:00 +14°C° 0 mm 2 mps 752 mmHg 39%
    13:00 +15°C° 0 mm 2 mps 752 mmHg 38%
    14:00 +15°C° 0 mm 2 mps 751 mmHg 36%
    15:00 +14°C° 0 mm 2 mps 751 mmHg 41%
    16:00 +12°C° 0 mm 2 mps 751 mmHg 46%
    17:00 +11°C° 0 mm 1 mps 750 mmHg 52%
    18:00 +10°C° 0 mm 1 mps 751 mmHg 53%
    19:00 +9°C° 0 mm 1 mps 751 mmHg 55%
    20:00 +9°C° 0 mm 1 mps 751 mmHg 56%
    21:00 +8°C° 0 mm 1 mps 751 mmHg 58%
    22:00 +8°C° 0 mm 1 mps 751 mmHg 59%
    23:00 +7°C° 0 mm 1 mps 751 mmHg 60%

    16 November, Saturday

    Time Temperature Precipitation Wind Pressure Humidity
    00:00 +7°C° 0 mm 1 mps 750 mmHg 61%
    01:00 +7°C° 0 mm 1 mps 750 mmHg 63%
    02:00 +6°C° 0 mm 0 mps 750 mmHg 64%
    03:00 +6°C° 0 mm 1 mps 750 mmHg 66%
    04:00 +6°C° 0 mm 1 mps 749 mmHg 68%
    05:00 +6°C° 0 mm 1 mps 749 mmHg 69%
    06:00 +7°C° 0 mm 1 mps 750 mmHg 66%
    07:00 +8°C° 0 mm 1 mps 750 mmHg 63%
    08:00 +8°C° 0 mm 2 mps 750 mmHg 60%
    09:00 +10°C° 0 mm 2 mps 750 mmHg 54%
    10:00 +13°C° 0 mm 2 mps 749 mmHg 49%
    11:00 +15°C° 0 mm 2 mps 749 mmHg 44%
    12:00 +16°C° 0 mm 2 mps 748 mmHg 43%
    13:00 +16°C° 0 mm 3 mps 747 mmHg 42%
    14:00 +17°C° 0 mm 3 mps 746 mmHg 42%
    15:00 +16°C° 0 mm 3 mps 746 mmHg 47%
    16:00 +14°C° 0 mm 2 mps 746 mmHg 52%
    17:00 +13°C° 0 mm 2 mps 746 mmHg 57%
    18:00 +12°C° 0 mm 2 mps 746 mmHg 60%
    19:00 +12°C° 0 mm 2 mps 746 mmHg 63%
    20:00 +10°C° 0 mm 3 mps 745 mmHg 65%
    21:00 +10°C° 0 mm 3 mps 745 mmHg 69%
    22:00 +10°C° 0 mm 3 mps 745 mmHg 73%
    23:00 +9°C° 0 mm 3 mps 745 mmHg 77%

    17 November, Sunday

    Time Temperature Precipitation Wind Pressure Humidity
    00:00 +9°C° 0 mm 3 mps 744 mmHg 81%
    01:00 +9°C° 0 mm 3 mps 744 mmHg 85%
    02:00 +9°C° 0 mm 2 mps 743 mmHg 88%
    03:00 +9°C° 0 mm 2 mps 743 mmHg 89%
    04:00 +9°C° 0 mm 2 mps 743 mmHg 89%
    05:00 +10°C° 0 mm 2 mps 743 mmHg 89%
    06:00 +12°C° 0 mm 2 mps 743 mmHg 86%
    07:00 +12°C° 0 mm 2 mps 743 mmHg 84%
    08:00 +13°C° 0 mm 2 mps 744 mmHg 82%
    09:00 +14°C° 0 mm 2 mps 743 mmHg 82%
    10:00 +14°C° 0 mm 2 mps 743 mmHg 83%
    11:00 +14°C° 0 mm 2 mps 743 mmHg 83%
    12:00 +14°C° 0.1 mm 3 mps 743 mmHg 78%
    13:00 +15°C° 0.1 mm 5 mps 742 mmHg 72%
    14:00 +16°C° 0.1 mm 6 mps 742 mmHg 67%
    15:00 +14°C° 0 mm 7 mps 743 mmHg 70%
    16:00 +11°C° 0 mm 7 mps 743 mmHg 72%
    17:00 +9°C° 0 mm 8 mps 744 mmHg 75%
    18:00 +9°C° 0 mm 8 mps 744 mmHg 74%
    19:00 +9°C° 0 mm 7 mps 745 mmHg 73%
    20:00 +9°C° 0 mm 7 mps 745 mmHg 72%
    21:00 +9°C° 0 mm 6 mps 746 mmHg 74%
    22:00 +8°C° 0 mm 5 mps 746 mmHg 76%
    23:00 +8°C° 0 mm 4 mps 746 mmHg 78%
    Show more